Theta_e
349 348 347 346 348 347 346 344 348 351 350 350 350 350 351 350 347 345 349 349 350 352 353 352 353 353 353 353 353 352 351 351 348 350 351 347 346 345 345 346 344 348 348
348 347 346 345 345 345 345 346 348 350 351 351 350 351 349 349 349 348 349 353 353 352 350 348 352 352 352 352 351 351 351 351 351 352 351 347 348 349 346 341 346 348 346
349 347 350 344 343 346 345 345 346 348 351 347 345 349 349 352 352 352 352 350 353 352 350 350 349 352 352 350 351 351 349 346 348 350 347 349 348 349 348 348 346 338 346
350 350 349 350 350 349 345 346 347 351 352 351 349 346 351 352 354 355 354 353 352 350 351 352 351 350 351 347 343 346 345 344 344 344 349 348 345 347 345 348 345 344 340
351 349 350 348 350 352 351 352 352 351 351 351 350 353 351 351 350 344 346 344 344 345 349 349 351 350 349 344 344 344 345 345 346 348 348 345 344 343 342 344 346 345 343
351 348 344 341 344 348 349 350 350 351 351 350 352 351 350 350 348 343 347 351 352 351 351 351 350 350 344 343 343 344 345 345 347 350 350 348 343 336 345 345 346 346 334
352 349 348 345 340 343 347 351 348 350 352 352 352 353 352 348 347 349 351 347 345 347 350 351 351 343 342 341 341 342 343 344 349 349 350 349 347 338 339 344 344 344 336
351 350 352 348 341 341 345 347 347 349 348 350 351 352 347 341 341 338 348 348 345 348 349 344 341 340 339 337 338 340 340 341 347 348 349 350 348 345 338 344 340 344 339
351 350 352 353 351 344 346 347 349 346 345 348 345 343 341 341 342 340 336 335 337 340 343 343 343 343 342 340 338 339 340 340 347 348 349 349 347 345 336 344 346 340 336
350 352 352 352 352 350 351 348 345 340 340 342 341 343 343 343 341 341 342 342 340 340 341 340 340 339 338 338 338 339 338 339 345 346 347 348 346 346 340 338 343 341 339
349 352 350 351 351 348 352 352 342 337 337 343 347 348 350 352 352 351 345 343 344 344 343 344 344 345 344 342 337 336 337 345 347 346 347 344 345 346 346 338 341 339 341
346 349 348 349 350 349 350 353 352 349 346 346 346 347 351 349 349 351 350 346 346 345 345 346 346 344 345 347 348 344 347 349 349 348 348 346 346 345 346 343 341 339 340
348 348 349 348 348 348 350 351 351 348 347 343 339 341 343 346 348 349 349 349 349 348 349 349 350 350 348 345 345 349 351 350 349 348 348 345 344 343 345 347 342 340 339
349 349 348 348 347 345 348 349 349 349 345 344 337 333 336 343 346 347 351 351 349 350 347 350 351 347 346 346 346 348 348 347 349 349 348 346 344 344 343 347 345 341 343
349 350 350 348 343 341 335 345 344 342 342 339 333 332 333 336 342 345 347 349 348 349 349 346 347 348 347 347 345 347 347 347 345 347 348 347 347 345 342 344 345 343 345
349 349 349 349 344 342 339 333 335 338 343 342 346 345 342 344 346 348 349 349 348 349 350 348 349 348 349 348 348 347 346 345 346 347 348 349 346 346 345 342 344 345 345
349 349 349 348 347 343 340 339 343 348 348 348 350 346 347 349 351 350 352 351 351 348 348 350 350 352 352 350 349 349 349 348 348 349 349 348 347 345 340 337 342 343 343
350 350 349 348 347 345 343 342 347 350 351 352 353 351 350 349 348 348 349 351 351 349 351 353 353 353 351 348 347 347 347 347 347 347 347 347 346 345 345 345 341 343 343
352 352 351 351 350 346 344 347 348 350 352 354 351 350 348 348 348 349 350 350 349 351 353 354 354 353 351 349 347 343 344 343 342 343 345 345 346 345 345 345 342 343 344
352 352 352 352 352 348 348 348 352 353 354 353 350 349 349 348 348 349 352 346 342 352 354 354 354 353 352 350 347 342 341 338 340 344 344 343 342 344 345 347 347 346 344
352 353 353 353 353 353 352 352 352 353 354 354 352 349 349 349 350 350 350 350 348 350 351 353 354 354 349 348 344 336 335 338 338 342 336 338 338 340 344 346 347 346 346
351 353 353 353 354 351 353 353 353 354 353 355 354 351 349 347 349 350 350 350 350 353 353 354 354 351 349 346 340 336 335 334 340 334 339 335 340 337 336 339 341 339 342
352 353 353 351 353 351 352 354 354 354 354 353 353 353 353 348 351 353 352 351 352 347 347 345 346 346 341 341 341 338 335 336 336 335 335 337 337 337 336 334 334 335 337
351 353 353 351 351 351 351 354 355 354 355 353 353 353 354 351 352 353 353 352 348 339 335 339 342 341 341 336 338 340 340 339 338 338 334 334 335 333 332 331 330 332 333
350 352 353 353 351 351 352 352 354 355 354 354 355 353 352 352 352 353 352 345 339 338 334 332 337 338 338 338 338 337 337 337 338 338 338 332 330 329 327 326 326 326 327
350 351 353 354 351 351 352 352 354 354 355 355 355 355 354 352 352 352 347 342 337 334 332 334 333 338 338 338 338 338 336 335 334 334 334 330 328 324 322 322 323 325 326
Wind_Speed
12 17 16 22 26 25 25 23 21 21 21 18 18 18 17 16 15 14 12 13 12 12 12 13 13 13 14 14 14 14 13 12 12 10 10 11 11 11 6 8 9 7 9
24 19 19 21 22 23 23 22 21 18 19 19 17 16 15 15 14 12 12 12 12 11 11 12 13 13 12 13 12 13 12 11 10 9 8 8 8 6 7 6 10 6 6
21 21 19 22 21 21 21 20 19 18 18 17 16 15 15 13 13 13 12 11 12 11 12 12 12 12 11 11 11 11 10 9 8 6 6 5 5 6 4 5 6 4 6
20 19 19 22 21 20 19 19 18 16 15 15 14 15 15 14 14 12 12 10 9 10 10 12 12 12 11 11 11 10 9 9 6 4 4 4 4 1 3 3 3 5 5
18 19 19 21 20 18 18 17 16 16 15 15 15 13 12 11 10 11 10 10 10 10 10 10 11 11 11 11 9 8 6 4 2 3 2 2 1 1 2 2 1 2 4
19 17 19 19 18 17 17 17 16 15 14 14 13 12 11 11 12 13 12 10 9 10 9 9 9 10 9 8 7 5 4 4 4 4 4 4 1 2 1 2 2 3 1
16 16 15 15 15 15 16 15 15 15 14 12 12 12 10 11 11 12 11 8 7 8 7 8 7 7 6 4 4 4 4 4 5 3 3 4 3 3 2 4 5 4 3
16 15 14 13 13 13 13 13 14 13 13 13 11 10 11 11 11 10 9 8 7 7 6 6 5 3 2 1 1 3 5 6 5 3 2 4 6 5 4 4 4 5 5
14 14 13 12 12 11 11 12 12 12 12 12 11 11 11 11 11 10 8 6 4 4 4 3 2 1 1 2 2 3 4 6 5 5 5 5 7 6 7 6 7 6 7
13 13 15 13 12 11 9 11 11 11 11 12 11 10 10 10 9 7 7 5 5 4 4 4 3 3 4 5 5 5 6 8 6 7 8 7 8 9 10 7 8 9 9
12 12 14 15 12 11 10 9 10 9 9 10 8 6 5 4 3 3 3 4 4 4 4 4 5 6 6 7 6 5 6 7 8 9 7 7 8 10 12 11 10 9 11
15 14 13 12 11 11 9 9 9 7 6 5 4 3 1 0 0 1 1 2 4 5 5 5 5 6 7 6 7 6 7 8 9 8 9 11 11 12 13 14 12 12 12
17 15 15 13 12 11 10 9 8 7 6 6 5 4 2 3 3 3 4 5 5 6 7 7 8 7 8 10 8 8 9 10 10 10 11 14 13 13 15 15 16 14 15
18 17 16 15 14 13 10 10 9 7 7 7 7 7 7 6 5 5 5 5 7 7 9 8 9 11 12 11 12 12 11 11 12 12 14 14 15 15 15 15 18 16 15
19 19 18 18 18 16 16 11 10 10 9 9 11 11 11 9 9 8 9 8 8 8 10 10 11 12 14 14 15 15 15 14 13 13 13 16 15 15 16 16 17 19 17
17 18 18 18 20 19 17 15 13 12 11 12 11 10 9 10 11 11 10 9 9 8 8 10 13 12 12 15 18 16 17 16 14 13 14 15 16 16 16 17 20 21 22
18 17 19 19 19 21 20 17 14 12 10 11 10 10 11 12 14 14 12 11 8 9 11 11 14 11 11 13 15 16 15 15 15 15 15 15 16 18 18 17 21 24 25
18 19 19 18 19 21 20 18 15 11 11 11 11 12 12 9 9 9 9 9 9 11 10 10 11 10 12 13 13 13 13 15 16 17 17 16 16 16 16 21 21 24 26
20 18 19 19 20 22 21 18 16 14 13 11 11 9 6 7 8 8 10 10 10 9 9 9 9 9 12 13 15 15 14 14 15 13 13 12 14 15 14 16 17 20 22
19 19 19 19 20 22 19 19 14 13 13 12 12 11 9 10 10 10 8 10 9 8 9 8 8 9 10 11 15 15 16 15 12 8 8 9 12 12 12 11 11 14 17
18 18 19 19 20 18 17 16 16 17 15 14 14 16 16 14 13 11 11 12 10 9 11 12 11 11 10 8 14 17 12 8 10 4 13 11 12 13 11 12 11 12 15
21 21 21 22 21 22 18 17 15 13 14 15 13 19 18 16 15 13 13 11 9 10 11 9 8 9 8 8 8 11 6 9 2 21 6 16 6 14 16 13 13 17 17
25 24 25 27 25 25 23 17 15 13 14 15 15 16 15 15 13 13 12 9 11 11 7 7 6 6 10 9 7 4 4 4 17 3 15 9 16 14 16 19 19 17 17
29 27 28 30 29 28 26 20 19 19 17 15 12 10 9 11 11 12 12 13 10 6 7 5 5 6 7 10 9 4 5 9 5 8 10 19 13 20 20 20 21 20 20
30 28 27 29 32 32 28 28 23 22 18 15 11 11 13 11 10 11 11 8 9 6 6 6 5 5 4 8 9 11 9 9 9 6 12 18 23 22 23 23 23 25 25
28 29 28 28 35 35 33 30 28 25 23 18 17 14 11 10 9 9 9 9 9 8 6 4 5 4 5 8 9 11 12 9 13 12 12 19 22 25 24 28 29 27 26
Wind_Direction
121 124 121 118 113 117 124 125 124 123 116 119 115 110 106 107 114 115 106 98 93 93 88 88 93 90 95 95 95 95 95 95 93 94 100 102 105 113 114 103 89 92 93
134 122 127 125 120 120 122 127 127 125 126 125 119 106 106 107 107 110 106 105 103 95 95 94 98 98 99 96 96 97 95 95 101 104 100 97 96 93 98 109 105 104 102
128 129 120 118 116 118 122 125 125 124 121 120 118 113 104 105 108 109 110 106 101 94 95 98 99 93 94 98 99 95 97 95 99 107 107 97 89 92 95 110 116 107 109
129 127 122 119 117 118 121 121 120 117 117 118 115 110 111 109 109 104 103 102 98 101 100 97 100 100 97 98 100 101 88 80 83 95 87 82 83 142 120 139 119 113 128
131 131 127 121 118 117 119 116 117 115 112 111 112 112 111 113 109 106 100 96 95 104 106 100 102 100 100 98 91 86 70 50 28 55 38 18 59 301 139 140 131 122 139
131 135 135 126 116 116 120 120 119 119 117 110 109 104 94 96 101 105 98 97 102 106 108 105 106 102 98 95 91 71 53 27 358 292 279 301 308 256 164 135 210 230 240
135 140 140 137 126 118 122 119 116 110 106 107 105 99 96 99 105 108 105 108 100 109 111 111 112 108 103 91 69 50 26 22 3 329 271 250 260 307 247 205 223 265 265
142 142 144 147 139 128 125 125 118 110 107 99 96 102 93 97 98 108 109 108 105 105 102 98 101 104 98 69 13 350 351 350 357 350 302 260 263 295 287 262 252 242 257
146 143 145 151 142 139 129 126 119 116 111 113 110 101 97 95 94 94 96 92 92 99 96 96 83 57 291 275 268 287 300 308 317 319 309 288 288 282 284 261 261 253 245
152 149 154 151 150 145 136 136 130 121 116 110 108 107 103 94 90 82 80 66 64 61 48 31 356 302 291 282 268 265 271 282 285 287 291 274 301 283 274 269 260 253 245
166 162 163 163 160 156 143 150 143 135 129 119 117 118 96 97 91 84 83 64 37 23 12 357 346 333 315 304 283 272 264 275 289 279 283 269 292 292 274 262 267 267 252
178 175 174 169 167 163 157 159 162 156 157 147 155 155 141 201 311 324 322 345 344 334 323 314 314 312 318 303 295 290 281 288 291 283 276 283 282 288 281 260 255 267 262
184 183 185 180 178 175 176 174 176 178 181 182 188 203 240 287 304 312 316 316 315 344 323 318 312 307 311 324 307 287 285 285 277 280 282 279 277 283 289 262 245 256 262
189 189 191 191 189 191 187 189 194 198 205 214 228 246 268 283 294 309 312 317 326 330 315 310 314 313 318 319 307 294 290 290 281 278 284 286 273 274 277 271 246 249 258
195 194 195 196 200 200 203 205 207 215 226 235 249 261 269 279 291 301 306 315 324 327 327 331 329 319 314 315 314 310 299 290 289 280 284 283 276 276 272 266 250 250 257
203 202 199 202 205 207 210 213 220 231 241 248 253 257 268 279 289 293 298 300 311 321 327 338 347 337 327 322 316 308 302 299 290 282 280 283 280 273 272 263 252 253 256
205 206 204 204 207 212 217 222 228 235 237 242 250 261 273 283 289 293 288 285 293 314 324 328 331 329 328 324 319 314 305 299 294 288 282 278 278 278 279 272 262 254 254
201 205 206 206 208 213 217 220 223 225 233 247 256 266 275 278 300 314 320 308 294 299 307 315 321 323 324 328 326 321 313 306 295 291 285 277 277 279 279 285 271 258 256
209 207 208 207 209 212 217 218 219 227 237 249 251 253 265 285 300 305 311 319 315 300 294 300 306 310 316 322 325 319 314 312 305 301 298 293 289 287 284 280 277 264 264
212 211 212 213 213 211 211 215 223 232 240 244 237 244 256 271 283 296 304 315 312 307 312 307 299 300 302 311 318 316 314 311 304 310 324 328 318 314 309 302 294 281 277
215 213 213 214 215 210 211 215 224 227 237 241 242 251 261 269 279 284 288 301 313 314 309 307 306 304 306 319 320 323 321 328 318 18 330 322 324 323 322 318 315 302 295
215 215 214 218 217 215 216 220 223 228 241 244 252 258 265 264 271 276 285 292 296 305 310 313 311 313 312 331 328 316 327 340 341 325 336 323 349 329 318 312 311 310 301
217 216 215 220 220 220 218 222 230 238 246 252 254 254 258 260 265 279 275 287 298 305 317 329 327 331 320 318 334 324 328 328 326 340 320 322 319 321 318 312 311 307 298
220 219 219 223 222 225 223 221 223 228 237 242 243 247 240 246 256 274 278 278 271 291 316 318 326 335 328 320 326 316 297 302 319 319 316 315 314 313 313 309 305 302 300
219 217 219 218 223 224 224 221 222 228 239 244 242 240 238 254 270 271 269 269 283 284 298 313 328 330 328 314 319 316 314 309 294 276 304 316 311 310 310 307 303 298 296
218 216 216 213 221 224 224 225 224 225 228 233 235 237 237 249 262 268 260 266 274 278 304 315 323 329 320 307 306 307 310 315 312 307 301 307 306 307 309 303 298 296 294